DLH1487 EDDH-EDDM

Flight info

Callsign DLH1487
Flight time N/A
Altitude 35000
Route AMLUH3B AMLUH M852 DENIX DCT ZUCKA DCT SODRO/N0445F310 T703 LULAR/N0442F300 T105 LANDU LANDU2A
Aircraft A320/M-SDE3FGHIRWY/LB1

Departure

Time 2026-05-01 13:10
Airport Hamburg Helmut Schmidt Airport (EDDH)

Arrival

Time N/A
Airport Munich Airport (EDDM)
Time Latitude Longitude Altitude Speed Heading
2026-05-01 12:34 53.63418 10.00345 46 ft 0 kts 99°
2026-05-01 13:00 53.63419 10.00337 46 ft 3 kts 99°
2026-05-01 13:01 53.63418 10.00249 46 ft 4 kts 63°
2026-05-01 13:01 53.63404 10.00224 41 ft 2 kts 358°
2026-05-01 13:01 53.63402 10.00224 41 ft 0 kts 356°
2026-05-01 13:07 53.63469 10.00209 46 ft 6 kts 338°
2026-05-01 13:07 53.63500 10.00172 46 ft 7 kts 320°
2026-05-01 13:07 53.63544 10.00109 46 ft 8 kts 320°
2026-05-01 13:08 53.63584 10.00049 46 ft 7 kts 316°
2026-05-01 13:08 53.63606 9.99997 47 ft 4 kts 283°
2026-05-01 13:08 53.63596 9.99955 45 ft 4 kts 237°
2026-05-01 13:08 53.63591 9.99946 46 ft 0 kts 231°
2026-05-01 13:09 53.63492 9.99744 45 ft 59 kts 230°
2026-05-01 13:09 53.63084 9.98919 45 ft 121 kts 230°
2026-05-01 13:09 53.62450 9.97637 44 ft 167 kts 229°
2026-05-01 13:09 53.61692 9.96075 542 ft 173 kts 226°
2026-05-01 13:10 53.60926 9.94502 1345 ft 174 kts 228°
2026-05-01 13:10 53.60120 9.92855 1809 ft 193 kts 229°
2026-05-01 13:10 53.59211 9.91003 2332 ft 214 kts 229°
2026-05-01 13:10 53.58255 9.89049 3227 ft 217 kts 228°
2026-05-01 13:11 53.57264 9.87113 4070 ft 219 kts 218°
2026-05-01 13:11 53.55905 9.86152 4882 ft 215 kts 177°
2026-05-01 13:11 53.54515 9.86911 5687 ft 214 kts 144°
2026-05-01 13:11 53.53348 9.88490 6487 ft 216 kts 141°
2026-05-01 13:12 53.52254 9.90250 7231 ft 221 kts 127°
2026-05-01 13:12 53.51565 9.92591 7891 ft 233 kts 108°
2026-05-01 13:12 53.51216 9.95404 8206 ft 257 kts 109°
2026-05-01 13:12 53.50213 9.97907 8736 ft 266 kts 144°
2026-05-01 13:13 53.48515 9.99186 9523 ft 271 kts 162°
2026-05-01 13:13 53.46683 9.99985 10385 ft 273 kts 166°
2026-05-01 13:13 53.44783 10.00717 10852 ft 291 kts 166°
2026-05-01 13:13 53.42737 10.01544 11074 ft 314 kts 165°
2026-05-01 13:14 53.40565 10.02509 11479 ft 329 kts 163°